JUPITER 3 (ECHOSTAR 24)

Last updated on Sun Jun 21 2026 00:03:09 GMT+0000 (Coordinated Universal Time)

1 57479U 23108A 26170.52078590 .00000000 00000+0 00000+0 0 9996 2 57479 0.0217 356.8940 0001304 90.3513 272.7697 1.00270358 10667
UTC large
Height (km)
Speed (km/s)
/
Latitude / Longitude
Inclination (degrees)
Orbital Period (minutes)
Azimuth
Elevation
Range (km)
Doppler Factor

Next 0 passes for location: London (51.5072 / 0.1276)

No passes found over London.
JUPITER 3 (ECHOSTAR 24)